Torna al catalogo

OPTUS D2

AttivoComunicazioniGEO
NORAD 32252·PAYLOAD·🇦🇺 Australia

Lanciato Oct 5, 2007 da Guiana Space Centre

Loading…

TLE

AggiornatoSource: Space-Track

Epoca: Sep 14, 2026, 13:18 UTC

1 32252U 07044A   26257.55443080  .00000015  00000-0  00000-0 0  9996
2 32252   2.3075  80.8482 0002506 101.5040 266.4776  0.99340182 69433

Traccia OPTUS D2 in tempo reale con AllMySat

Download on the App Store